Flag for China Weather past 2 weeks in Shanghai, Shanghai Municipality, China

Now
70 °F

Fog.


Feels Like: 70 °F
Forecast: 52 / 64 °F
Wind: 6 mph from Southeast

Location: Shanghai Hongqiao Airport

Current Time: Apr 19, 2015 at 7:04:36 PM

Latest Report: Apr 19, 2015 at 6:30 PM


Visibility: 2 mi

Pressure: 29.65 "Hg

Humidity: 83%

Dew point: 64 °F

Location of ShanghaiLocation

Historic Weather in Shanghai — Graph

°F

Shanghai temperature yesterday

Maximum temperature yesterday: 79 °F (at 1:00 PM)
Minimum temperature yesterday: 63 °F (at 12:00 AM)
Average temperature yesterday: 69 °F

Past Weeks' High & Low Weather Summary

 TemperatureHumidityPressure
High79 °F (Apr 18, 1:00 PM)100% (Apr 5, 5:30 AM)30.42 "Hg (Apr 5, 5:30 AM)
Low41 °F (Apr 7, 7:30 PM)29% (Apr 13, 3:30 PM)29.59 "Hg (Apr 19, 4:00 PM)
Average57 °F68%30.05 "Hg
* Reported Apr 4 5:00 PM — Apr 19 5:30 PM, Shanghai, Weather by CustomWeather, © 2015

Note: Actual official high and low records may vary slightly from our data, if they occured in-between our weather recording intervals... More about our weather records

Advertising

Shanghai weather history for previous 24 hours

 ConditionsComfort  
Time TempWeatherWind HumidityBarometerVisibility
5:30 PM
Sun, Apr 19
72 °FFog.6 mph78%29.62 "Hg2 mi
5:00 PM72 °FFog.6 mph78%29.62 "Hg2 mi
4:30 PM72 °FFog.8 mph78%29.62 "Hg2 mi
4:00 PM73 °FFog.6 mph74%29.59 "Hg2 mi
3:30 PM73 °FFog.1 mph74%29.62 "Hg2 mi
3:00 PM75 °FFog.1 mph69%29.62 "Hg2 mi
2:30 PM73 °FFog.3 mph78%29.62 "Hg1 mi
2:00 PM73 °FFog.6 mph74%29.62 "Hg1 mi
1:30 PM75 °FFog.8 mph74%29.65 "Hg1 mi
1:00 PM73 °FFog.1 mph78%29.65 "Hg1 mi
12:30 PM73 °FFog.6 mph78%29.65 "Hg1 mi
12:00 PM73 °FFog.3 mph74%29.68 "Hg2 mi
11:30 AM73 °FFog.3 mph78%29.68 "Hg2 mi
11:00 AM72 °FFog.3 mph83%29.68 "Hg2 mi
10:30 AM72 °FFog.3 mph83%29.71 "Hg2 mi
10:00 AM70 °FFog.3 mph88%29.71 "Hg1 mi
9:30 AM70 °FFog.3 mph88%29.71 "Hg1 mi
9:00 AM68 °FFog.1 mph88%29.71 "Hg1 mi
8:30 AM66 °FFog.3 mph94%29.71 "Hg1 mi
8:00 AM66 °FFog.3 mph94%29.71 "Hg1 mi
7:30 AM66 °FFog.3 mph94%29.71 "Hg1 mi
7:00 AM66 °FFog.3 mph94%29.71 "Hg1 mi
6:30 AM64 °FFog.3 mph94%29.71 "Hg1 mi
6:00 AM64 °FFog.3 mph94%29.71 "Hg2 mi
5:30 AM64 °FLight rain. Fog.6 mph94%29.71 "Hg2 mi
5:00 AM64 °FLight rain. Fog.6 mph94%29.68 "Hg3 mi
4:30 AM66 °FLight rain. Clear.6 mph88%29.68 "Hg4 mi
4:00 AM66 °FLight rain. Clear.8 mph88%29.68 "Hg4 mi
3:30 AM66 °FLight rain. Clear.8 mph88%29.68 "HgN/A
3:00 AM66 °FLight rain. Clear.6 mph88%29.68 "HgN/A
2:30 AM66 °FLight rain. Clear.1 mph83%29.68 "HgN/A
2:00 AM66 °FClear.No wind83%29.68 "Hg10 mi
1:30 AM66 °FClear.1 mph83%29.68 "Hg10 mi
1:00 AM66 °FClear.3 mph83%29.68 "Hg10 mi
12:30 AM66 °FClear.3 mph83%29.68 "Hg10 mi
12:00 AM66 °FClear.6 mph83%29.68 "Hg10 mi
11:30 PM
Sat, Apr 18
66 °FClear.3 mph83%29.68 "Hg10 mi
11:00 PM64 °FClear.3 mph88%29.71 "Hg10 mi
10:30 PM66 °FClear.6 mph83%29.71 "Hg10 mi
10:00 PM66 °FClear.3 mph83%29.71 "Hg10 mi
9:30 PM66 °FClear.6 mph83%29.71 "Hg10 mi
9:00 PM66 °FPassing clouds.3 mph83%29.71 "HgN/A
8:30 PM68 °FClear.3 mph78%29.71 "Hg10 mi
8:00 PM68 °FClear.3 mph78%29.68 "Hg10 mi
7:30 PM68 °FClear.6 mph78%29.68 "Hg10 mi
7:00 PM70 °FClear.6 mph73%29.68 "Hg10 mi
Weather by CustomWeather, © 2015

See weather overviewHow to use our weather pages